Location: Kumla
(59.1265°N, 15.1401°E)
Time: 08:10:15
(UTC+01:00)

Vanguard 1 Rocket - Pass Details

Date: 06 December 2023
Orbit: 653 x 4219 km, 34.3° (Epoch: 04 March)

Event Time Altitude Azimuth Distance (km) Brightness Sun altitude
Rises 04:36:35 0° 218° (SW) 8,218 11.9 -28.5°
Reaches altitude 10° 04:44:46 10° 206° (SSW) 6,756 11.5 -27.5°
Maximum altitude 04:57:38 21° 167° (SSE) 4,793 11.1 -25.8°
Drops below altitude 10° 05:06:44 10° 126° (SE) 4,638 11.7 -24.7°
Sets 05:10:49 0° 110° (ESE) 5,118 12.5 -24.1°
